Overview Statistics Trail Chart Weather Telemetry Raw packets
 

This is the latest recevied weather packets stored in our database for station/object 9A7DI-13. If no packets are shown the sender has not sent any weather packets the latest 10 day(s).

<< 24 25 26 27 28 29 30 >>
Time Temp. Humidity Pressure Rain* Wind** Luminosity Snow
1788299206 16.11° C 81% 1029.3 hPa - - - -
1788298606 16.11° C 81% 1029.4 hPa - - - -
1788298006 16.67° C 79% 1029.3 hPa - - - -
1788297406 16.67° C 80% 1029.3 hPa - - - -
1788296806 16.67° C 80% 1029.2 hPa - - - -
1788296206 17.22° C 77% 1029.1 hPa - - - -
1788295606 16.67° C 78% 1029 hPa - - - -
1788295006 16.67° C 79% 1028.9 hPa - - - -
1788294406 16.67° C 79% 1028.8 hPa - - - -
1788293806 17.22° C 77% 1028.8 hPa - - - -
1788293206 17.78° C 73% 1028.8 hPa - - - -
1788292606 17.78° C 77% 1028.8 hPa - - - -
1788292006 17.78° C 76% 1028.8 hPa - - - -
1788291406 18.89° C 71% 1028.7 hPa - - - -
1788290806 18.89° C 69% 1028.7 hPa - - - -
1788290206 19.44° C 68% 1028.6 hPa - - - -
1788289606 19.44° C 67% 1028.5 hPa - - - -
1788289006 19.44° C 69% 1028.5 hPa - - - -
1788288406 19.44° C 71% 1028.5 hPa - - - -
1788287806 20.56° C 65% 1028.4 hPa - - - -
1788287206 20.56° C 66% 1028.2 hPa - - - -
1788286607 20.56° C 66% 1028.1 hPa - - - -
1788286006 22.22° C 62% 1028 hPa - - - -
1788285406 22.22° C 60% 1027.8 hPa - - - -
1788284806 22.78° C 60% 1027.7 hPa - - - -

* Rain since midnight (hover to see other rain measurements)
** Current wind speed in m/s (hover to see current wind gust speed)